Location: Unspecified
(0.0000°N, 0.0000°E)
Time: 00:37:24
(UTC+00:00)

CZ-2C R/B - Visible Passes

Search period start: 13 June 2025 00:00
Search period end: 23 June 2025 00:00
Orbit: 476 x 543 km, 97.5° (Epoch: 12 June)

Date Brightness Start Highest point End Pass type
(mag) Time Alt. Az. Time Alt. Az. Time Alt. Az.
13 Jun ? 05:22:42 10° ENE 05:24:53 16° E 05:27:04 10° SE visible
13 Jun ? 18:47:23 10° SSW 18:50:11 19° WSW 18:53:00 10° NW visible
14 Jun ? 18:30:06 10° SSW 18:33:38 34° WSW 18:37:11 10° NW visible
18 Jun ? 05:32:49 10° NE 05:35:38 22° E 05:38:28 10° SSE visible
18 Jun ? 18:59:01 10° SW 19:00:59 14° WSW 19:02:57 10° WNW visible
19 Jun ? 05:17:34 10° ENE 05:19:03 12° ESE 05:20:31 10° SE visible
19 Jun ? 18:41:14 10° SSW 18:44:24 24° WSW 18:47:35 10° NW visible
20 Jun ? 18:24:05 10° S 18:27:48 43° WSW 18:31:31 10° NNW visible
